"Pseudo-MPEC" for CAD8PW2

Created 2024 May 21 20:22:05 UT using Find_Orb

Click here for an explanation of pseudo-MPECs

 
 Astrometry: 
     CAD8PW2  C2024 04 033^8Qv?Q!wu+n2nP]=w^5BAIw3(#d;a#F]Bw9sLxB^Fru=LMLbxmeF52
     CAD8PW2  C2024 04 03uZ?W7*ry-6)o)#B'yZ(KVEw]G$EyKdN,*+C4#vuu3$kp[gxZG+W%F52
     CAD8PW2*1C2024 04 04.20232511 49 09.440-15 21 20.38   ~4477 21.10GVNEOCPG96
     CAD8PW2 1C2024 04 04.20792111 49 06.186-15 21 33.59   ~4477 20.59GVNEOCPG96
     CAD8PW2 1C2024 04 04.21352211 49 02.942-15 21 45.68   ~4477 21.24GVNEOCPG96
     CAD8PW2 1C2024 04 04.21911911 48 59.706-15 21 57.82   ~4477 20.49GVNEOCPG96
     CAD8PW2 KC2024 04 04.25198511 48 40.700-15 23 11.70   ~447q       VNEOCPI52
     CAD8PW2 KC2024 04 04.25411511 48 39.480-15 23 15.60   ~447q 21.12GVNEOCPI52
     CAD8PW2 KC2024 04 04.25624611 48 38.240-15 23 20.90   ~447q 21.46GVNEOCPI52
     CAD8PW2 KC2024 04 04.25837711 48 37.010-15 23 25.50   ~447q 20.93GVNEOCPI52
     CAD8PW2 |C2024 04 05]:'a92$Urb`v8q9%O^ve%NE'.+83BS:)FAo$vhf6^TPgHV=`,(fZ807
     CAD8PW2 |C2024 04 05'Ghf_!.lpk97;qg]^WAfqh4'_N3AnG;5iUkQGaC:R82suJPp$AF*807
     CAD8PW2 |C2024 04 05I+36'^)wMLR#yYn18*3P5)T+K!jN`#g^J5PvgHyA(598oxygcSrh807
     CAD8PW2 KC2024 04 05.21629211 39 24.167-15 58 07.50   ~455b 21.09GVNEOCPI52
     CAD8PW2 KC2024 04 05.21913711 39 22.525-15 58 14.70   ~455b 20.84GVNEOCPI52
     CAD8PW2 KC2024 04 05.22196911 39 20.869-15 58 20.53   ~455b 21.07GVNEOCPI52
     CAD8PW2 KC2024 04 05.22479511 39 19.220-15 58 26.47   ~455b 21.21GVNEOCPI52
     CAD8PW2  C2024 04 05.22906911 39 16.640-15 58 35.94   ~456M 21.0 GVNEOCPH01
     CAD8PW2  C2024 04 05.23340211 39 14.080-15 58 44.92   ~456M 21.3 GVNEOCPH01
     CAD8PW2  C2024 04 05.24633611 39 06.516-15 59 12.69   ~456M 20.9 GVNEOCPH01
     CAD8PW2 KC2024 04 05.25003211 39 04.354-15 59 20.71   ~456M 21.1 GVNEOCPH01
     CAD8PW2 |C2024 04 06.Is5jX7:mAj5jAstrometryi0LCEe6n=m*YWH/s2mSKEprf`a0)q807
     CAD8PW2 |C2024 04 06\'p=d?3WJl2':AT3-GfcL13ERM`VXy7(UTGtAXxhjY\e4or5\5bG807
     CAD8PW2 |C2024 04 06HayuGp,YoC$RcRMAQ;2dxQRmJh)9PQb7*78CLIAhMMQL18u:jNan807
     CAD8PW2 IC2024 04 06pk-FBI7LaOM^!v%C$Rt*SG;I9jc)rJwh;_h7.Ydock.A3bE@\Os]L01
     CAD8PW2 KC2024 04 06DBwi_ZacX*YqLp%,4Oo%]3GJulj2v=o@9F/x'K9Uu0[EigZr\9/pL01
     CAD8PW2 KC2024 04 06:ZEa$W]B'W[MA4.lP!!%e\J/$^'`xredacted;k0lKVSO3jK:H-BL01
     CAD8PW2 KC2024 04 08.31955311 09 00.146-17 40 08.80   ~488M 21.1 GVNEOCPH01
     CAD8PW2 KC2024 04 08.32350811 08 57.796-17 40 16.02   ~488M 21.1 GVNEOCPH01
     CAD8PW2 KC2024 04 08.33439011 08 51.336-17 40 35.35   ~488M 21.2 GVNEOCPH01
     CAD8PW2 KC2024 04 08.34026211 08 47.850-17 40 45.69   ~488M 21.0 GVNEOCPH01
     CAD8PW2 1C2024 04 09CA*iK,DPqZT^mclickbykS/7Xek-S[3G]@C;No@ZmJ+N$f2qN1'uQ62
     CAD8PW2 1C2024 04 09T_`yFm43;rS8RHfhol`CqL0BTA9[GtWt$4.s,;29R;`-0Sm.$?s9Q62
     CAD8PW2 KC2024 04 11.19007910 41 03.437-18 56 50.39   ~4B5M 21.19GVNEOCPI52
     CAD8PW2 KC2024 04 11.19388610 41 01.291-18 56 54.92   ~4B5M 21.47GVNEOCPI52
     CAD8PW2 KC2024 04 11.19769310 40 59.045-18 57 00.14   ~4B5M 20.89GVNEOCPI52
     CAD8PW2 KC2024 04 11.20151310 40 56.856-18 57 06.44   ~4B5M 22.20GVNEOCPI52
     CAD8PW2 KC2024 04 12.24359710 31 02.356-19 20 16.37   ~4C6b 20.52GVNEOCPI52
     CAD8PW2 KC2024 04 12.24900910 30 59.242-19 20 22.42   ~4C6b 20.88GVNEOCPI52
     CAD8PW2 KC2024 04 12.25441010 30 56.164-19 20 28.64   ~4C6b 21.40GVNEOCPI52
     CAD8PW2 KC2024 04 12.25981310 30 53.104-19 20 35.63   ~4C6b 21.22GVNEOCPI52
     CAD8PW2 KC2024 04 14.16587810 13 19.218-19 56 30.48   ~4E4q 21.26GVNEOCPI52
     CAD8PW2 KC2024 04 14.17130710 13 16.273-19 56 35.70   ~4E4q 21.37GVNEOCPI52
     CAD8PW2 KC2024 04 14.17674010 13 13.282-19 56 41.17   ~4E4q 21.11GVNEOCPI52
     CAD8PW2 KC2024 04 14.18217210 13 10.312-19 56 46.03   ~4E4q 21.54GVNEOCPI52
     CAD8PW2  C2024 04 169.0:\A:0EOr?54+hereN,]Clj.E7#04$]'=kkX'2L82!0+kx6s^MF52
     CAD8PW2  C2024 04 16=QrKP/AforT@/X#jOI\aexplanation*H4BZ5-e_UTD]qO/v%qY8F52
     CAD8PW2  C2024 04 16kppAs,(#U5,aUfd@D!kM0gS)^fuXEiSu[vPRP@^7u$79E6;jcKXpF52

Station data:
(807) Cerro Tololo Observatory, La Serena  (S30.169133 W70.805900)  Chile.
   Observer R. Holmes. 0.61-m f/6.5 astrograph + CCD.
(F52) Pan-STARRS 2, Haleakala  (N20.707382 W156.255910)  US/Hawaii.
   Observers J. Bulger, T. Dukes, T. Lowe, A. Schultz, M. Willman. Measurers
   K. Chambers, S. Chastel, T. de Boer, L. Denneau, J. Fairlamb, H.
   Flewelling, M. Huber, C.-C. Lin, E. Magnier, Y. Ramanjooloo, R. Wainscoat,
   R. Weryk. 1.8-m Ritchey-Chrétien + CCD.
(G96) Mt. Lemmon Survey  (N32.442729 W110.788720)  US/Arizona.  Observer E.
   J. Christensen. 1.5-m reflector + 10K CCD.
(H01) Magdalena Ridge Observatory, Socorro  (N33.984833 W107.189333)  US/New
   Mexico.  Observers W. H. Ryan, E. V. Ryan. Measurer W. H. Ryan. 2.4-m
   f/8.9 reflector + CCD.
(I52) Steward Observatory, Mt. Lemmon Station  (N32.442570 W110.788920)
   US/Arizona.  Observers T. A. Pruyne, B. M. Africano, E. J. Christensen, G.
   A. Farneth, D. C. Fuls, A. R. Gibbs, A. D. Grauer, H. Gröller, J. A.
   Johnson, R. A. Kowalski, S. M. Larson, G. J. Leonard, D. Rankin, R. L.
   Seaman, F. C. Shelly, K. W. Wierzchoś. 1.0-m prime focus + CCD.
(L01) Višnjan Observatory, Tičan  (N45.290897 E13.749300)  Croatia.
   Observers K. Korlević, D. Pujagic, V. Dobos. Measurers D. Pujagic, K.
   Korlević. 1.0-m f/2.9 reflector + CCD.
(Q62) iTelescope Observatory, Siding Spring  (S31.273286 E149.064420)
   Australia/NSW.  Observer H. Sato. 0.51-m f/6.8 astrograph + CCD + f/4.5
   focal reducer0.43-m f/6.8 astrograph + CCD + focal reducer0.43-m f/6.8
   astrograph + CCD0.10-m f/5 astrograph + CCD0.127-m f/5.6 refractor +
   CCD0.50-m f/6.8 reflector + CCD0.30-m f/9 reflector + CCD.

Orbital elements:  CAD8PW2
   Perihelion 2024 Jun 15.15342 +/- 0.331 TT =  3:40:55 (JD 2460476.65342)
Epoch 2024 Apr 16.0 TT = JDT 2460416.5   Earth MOID: 0.5744   Ju: 0.8187
q   1.17715324 +/- 0.00351          Ma: 0.0949                   AutoNEOCP
H   20.39 G 0.15                    Peri.  248.70519 +/- 0.32
                                    Node    11.26043 +/- 0.009
e   1.0026968 +/- 0.00807           Incl.   97.59726 +/- 0.13
From 48 observations 2024 Apr. 3-16; mean residual 0".31
Residuals in arcseconds: 
240403 F52  .32+  .22+    240405 I52  .13+  .08-    240409 Q62  .28+  .46-    
240403 F52  .13-  .14-    240405 H01  .20-  .14-    240411 I52  .39-  .40-    
240404 G96  .20+  .49+    240405 H01  .49-  .12+    240411 I52  .51+  .43+    
240404 G96  .13-  .28-    240405 H01  .23-  .07-    240411 I52  .00   .56+    
240404 G96  .25-  .09+    240405 H01  .15-  .22-    240411 I52  .39+  .37-    
240404 G96  .29-  .38+    240406 807  .03+  .41-    240412 I52  .02+  .96-    
240404 I52  .40-  .59-    240406 807  .41+  .12+    240412 I52  .41-  .23-    
240404 I52  .23-  .23+    240406 807  .22-  .25-    240412 I52  .44-  .31+    
240404 I52  .34-  .35-    240406 L01  .51+  .38+    240412 I52  .20-  .07+    
240404 I52  .31-  .23-    240406 L01  .44+  .35+    240414 I52  .08-  .44-    
240405 807  .05-  .24-    240406 L01  .39+  .31+    240414 I52  .15+  .22-    
240405 807  .15-  .19-    240408 H01  .08+  .13+    240414 I52  .24-  .24-    
240405 807  .16-  .02+    240408 H01  .07+  .06-    240414 I52  .35-  .33+    
240405 I52  .40-  .71+    240408 H01  .08+  .05-    240416 F52  .22-  .25-    
240405 I52  .04-  .40-    240408 H01  .07+  .03+    240416 F52  .22-  .23+    
240405 I52  .02+  .18-    240409 Q62  .16-  .01-    240416 F52  .52+  .15+    

Ephemerides (geocentric):
Date (UTC) HH   RA             Dec           delta  r     elong  mag " sig PA
---- --------  ------------   ------------  ------ ------ -----  --- --------
2024 05 21 20  07 24 19.152   -20 54 28.12  1.2426 1.2384  65.7 23.1 3.45  86
2024 05 21 21  07 24 14.848   -20 54 28.01  1.2433 1.2382  65.7 23.1 3.48  86
2024 05 21 22  07 24 10.550   -20 54 27.90  1.2439 1.2380  65.6 23.1 3.52  86
2024 05 21 23  07 24 06.259   -20 54 27.82  1.2446 1.2378  65.6 23.1 3.55  87
2024 05 22 00  07 24 01.975   -20 54 27.74  1.2453 1.2376  65.5 23.1 3.58  87
2024 05 22 01  07 23 57.697   -20 54 27.68  1.2460 1.2374  65.5 23.1 3.62  87
2024 05 22 02  07 23 53.426   -20 54 27.63  1.2466 1.2372  65.5 23.1 3.65  87
2024 05 22 03  07 23 49.161   -20 54 27.60  1.2473 1.2370  65.4 23.1 3.69  88
2024 05 22 04  07 23 44.903   -20 54 27.58  1.2480 1.2368  65.4 23.1 3.72  88
2024 05 22 05  07 23 40.651   -20 54 27.57  1.2487 1.2366  65.3 23.1 3.76  88
2024 05 22 06  07 23 36.406   -20 54 27.57  1.2493 1.2364  65.3 23.1 3.79  88
2024 05 22 07  07 23 32.167   -20 54 27.59  1.2500 1.2362  65.3 23.1 3.82  88
2024 05 22 08  07 23 27.935   -20 54 27.62  1.2507 1.2360  65.2 23.1 3.86  88
2024 05 22 09  07 23 23.710   -20 54 27.67  1.2513 1.2358  65.2 23.1 3.89  89
2024 05 22 10  07 23 19.491   -20 54 27.73  1.2520 1.2356  65.1 23.1 3.93  89
2024 05 22 11  07 23 15.278   -20 54 27.80  1.2527 1.2354  65.1 23.1 3.97  89
2024 05 22 12  07 23 11.071   -20 54 27.88  1.2534 1.2352  65.1 23.1 4.00  89
2024 05 22 13  07 23 06.871   -20 54 27.98  1.2540 1.2350  65.0 23.1 4.04  89
2024 05 22 14  07 23 02.678   -20 54 28.09  1.2547 1.2348  65.0 23.1 4.07  90
2024 05 22 15  07 22 58.491   -20 54 28.21  1.2554 1.2346  64.9 23.1 4.11  90
2024 05 22 16  07 22 54.310   -20 54 28.35  1.2560 1.2344  64.9 23.1 4.14  90
2024 05 22 17  07 22 50.135   -20 54 28.50  1.2567 1.2342  64.9 23.1 4.18  90
2024 05 22 18  07 22 45.967   -20 54 28.66  1.2574 1.2340  64.8 23.1 4.22  90
2024 05 22 19  07 22 41.805   -20 54 28.83  1.2580 1.2338  64.8 23.1 4.25  90
2024 05 22 20  07 22 37.650   -20 54 29.02  1.2587 1.2336  64.7 23.1 4.29  91
2024 05 22 21  07 22 33.500   -20 54 29.23  1.2594 1.2334  64.7 23.1 4.33  91
2024 05 22 22  07 22 29.357   -20 54 29.44  1.2600 1.2332  64.7 23.1 4.36  91
2024 05 22 23  07 22 25.221   -20 54 29.67  1.2607 1.2330  64.6 23.1 4.40  91
2024 05 23 00  07 22 21.090   -20 54 29.91  1.2614 1.2328  64.6 23.1 4.44  91
2024 05 23 01  07 22 16.966   -20 54 30.16  1.2620 1.2326  64.5 23.1 4.48  91
2024 05 23 02  07 22 12.848   -20 54 30.43  1.2627 1.2324  64.5 23.2 4.51  92
2024 05 23 03  07 22 08.736   -20 54 30.71  1.2634 1.2322  64.5 23.2 4.55  92
2024 05 23 04  07 22 04.630   -20 54 31.00  1.2640 1.2320  64.4 23.2 4.59  92
2024 05 23 05  07 22 00.530   -20 54 31.31  1.2647 1.2318  64.4 23.2 4.63  92
2024 05 23 06  07 21 56.437   -20 54 31.63  1.2654 1.2317  64.3 23.2 4.67  92
2024 05 23 07  07 21 52.349   -20 54 31.96  1.2660 1.2315  64.3 23.2 4.70  92
2024 05 23 08  07 21 48.268   -20 54 32.31  1.2667 1.2313  64.3 23.2 4.74  92
2024 05 23 09  07 21 44.193   -20 54 32.66  1.2674 1.2311  64.2 23.2 4.78  93
2024 05 23 10  07 21 40.124   -20 54 33.04  1.2680 1.2309  64.2 23.2 4.82  93
2024 05 23 11  07 21 36.061   -20 54 33.42  1.2687 1.2307  64.2 23.2 4.86  93
2024 05 23 12  07 21 32.004   -20 54 33.82  1.2693 1.2305  64.1 23.2 4.90  93
2024 05 23 13  07 21 27.953   -20 54 34.23  1.2700 1.2303  64.1 23.2 4.94  93
2024 05 23 14  07 21 23.908   -20 54 34.65  1.2707 1.2301  64.0 23.2 4.98  93
2024 05 23 15  07 21 19.870   -20 54 35.09  1.2713 1.2299  64.0 23.2 5.02  93
2024 05 23 16  07 21 15.837   -20 54 35.54  1.2720 1.2297  64.0 23.2 5.06  94
2024 05 23 17  07 21 11.810   -20 54 36.00  1.2726 1.2296  63.9 23.2 5.10  94
2024 05 23 18  07 21 07.789   -20 54 36.47  1.2733 1.2294  63.9 23.2 5.13  94
2024 05 23 19  07 21 03.774   -20 54 36.96  1.2740 1.2292  63.8 23.2 5.17  94